Location: Cahas Mountain Overlook
(37.0833°N, 80.1000°W)
Time: 01:20:43
(UTC-05:00)

A-11 Canister half - Pass Details

Date: 05 December 2023
Orbit: 1512 x 1687 km, 47.2° (Epoch: 01 March)

Event Time Altitude Azimuth Distance (km) Brightness Sun altitude
Exits shadow 05:04:46 34° 317° (NW) 2,478 9.6 -26.1°
Maximum altitude 05:09:26 59° 20° (NNE) 1,886 9.4 -25.1°
Drops below altitude 10° 05:19:26 10° 99° (E) 3,947 12.3 -23.2°
Sets 05:22:43 0° 103° (ESE) 4,936 13.2 -22.5°
